Location: London
(51.5166°N, 0.1046°W)
Time: 06:20:07
(UTC+00:00)

ISS - Visible Passes

Search period start: 30 January 2015 00:00
Search period end: 09 February 2015 00:00
Orbit: 401 x 408 km, 51.6° (Epoch: 29 January)

Date Brightness Start Highest point End Pass type
(mag) Time Alt. Az. Time Alt. Az. Time Alt. Az.
06 Feb -1.3 18:47:10 10° S 18:48:52 18° SSE 18:48:52 18° SSE visible
07 Feb -1.0 17:56:03 10° SSE 17:57:19 12° SE 17:58:40 10° ESE visible
07 Feb -1.3 19:30:03 10° SW 19:31:31 23° SW 19:31:31 23° SW visible
08 Feb -2.3 18:37:55 10° SW 18:40:52 31° SSE 18:41:24 30° SE visible
08 Feb 0.1 20:13:51 10° WSW 20:14:04 12° WSW 20:14:04 12° WSW visible
